Flag for France Weather past 2 weeks in Ajaccio, Corsica, France

Now
61 °F

Passing clouds.


Feels Like: 61 °F
Forecast: 63 / 80 °F
Wind: 7 mph from Northeast

Location: Ajaccio Airport

Current Time: Aug 28, 2014 at 7:19:56 AM

Latest Report: Aug 28, 2014 at 7:00 AM


Visibility: N/A

Pressure: 29.92 "Hg

Humidity: 83%

Dew point: 55 °F

Location of AjaccioLocation

Historic Weather in Ajaccio — Graph

°F

Ajaccio temperature yesterday

Maximum temperature yesterday: 82 °F (at 2:30 PM)
Minimum temperature yesterday: 64 °F (at 2:00 AM)
Average temperature yesterday: 73 °F

Past Weeks' High & Low Weather Summary

 TemperatureHumidityPressure
High86 °F (Aug 19, 2:30 PM)88% (Aug 14, 4:00 AM)30.07 "Hg (Aug 14, 4:00 AM)
Low57 °F (Aug 17, 3:30 AM)34% (Aug 21, 5:34 PM)29.77 "Hg (Aug 13, 10:00 AM)
Average71 °F66%29.97 "Hg
* Reported Aug 13 6:00 AM — Aug 28 6:00 AM, Ajaccio, Weather by CustomWeather, © 2014

Note: Actual official high and low records may vary slightly from our data, if they occured in-between our weather recording intervals... More about our weather records

Advertising

Ajaccio weather history for previous 24 hours

 ConditionsComfort  
Time TempWeatherWind HumidityBarometerVisibility
6:00 AM
Aug 28
61 °FClear.7 mph88%29.92 "Hg10 mi
5:30 AM61 °FClear.7 mph88%29.92 "HgN/A
4:30 AM63 °FClear.6 mph88%29.92 "HgN/A
4:00 AM63 °FClear.6 mph88%29.92 "HgN/A
3:30 AM64 °FClear.6 mph83%29.92 "HgN/A
3:00 AM64 °FClear.5 mph83%29.92 "HgN/A
2:30 AM64 °FClear.6 mph88%29.92 "HgN/A
2:00 AM66 °FClear.5 mph83%29.95 "HgN/A
1:30 AM66 °FClear.7 mph88%29.95 "HgN/A
1:00 AM66 °FClear.5 mph88%29.95 "HgN/A
12:30 AM68 °FClear.5 mph83%29.95 "HgN/A
12:00 AM68 °FClear.No wind88%29.95 "HgN/A
11:30 PM
Aug 27
68 °FClear.3 mph88%29.95 "HgN/A
11:00 PM70 °FClear.1 mph83%29.95 "HgN/A
10:30 PM70 °FClear.3 mph88%29.95 "HgN/A
10:00 PM72 °FClear.5 mph83%29.95 "HgN/A
9:30 PM73 °FClear.3 mph78%29.95 "HgN/A
9:00 PM73 °FClear.3 mph83%29.95 "HgN/A
8:30 PM73 °FClear.7 mph83%29.92 "HgN/A
8:00 PM75 °FClear.7 mph78%29.92 "HgN/A
7:30 PM77 °FClear.9 mph74%29.92 "HgN/A
7:00 PM77 °FClear.10 mph79%29.92 "HgN/A
6:30 PM79 °FClear.9 mph74%29.92 "HgN/A
6:00 PM79 °FPassing clouds.9 mph74%29.92 "HgN/A
4:30 PM81 °FPassing clouds.12 mph66%29.92 "HgN/A
3:30 PM82 °FPassing clouds.12 mph66%29.92 "HgN/A
3:00 PM81 °FPassing clouds.13 mph70%29.92 "HgN/A
2:30 PM82 °FScattered clouds.14 mph66%29.92 "HgN/A
2:00 PM81 °FScattered clouds.14 mph66%29.92 "HgN/A
1:30 PM81 °FScattered clouds.13 mph70%29.92 "HgN/A
1:00 PM81 °FScattered clouds.13 mph74%29.95 "HgN/A
12:30 PM81 °FScattered clouds.12 mph70%29.95 "HgN/A
12:00 PM81 °FScattered clouds.13 mph70%29.95 "HgN/A
11:30 AM81 °FPassing clouds.9 mph66%29.95 "HgN/A
11:00 AM79 °FPassing clouds.7 mph65%29.95 "HgN/A
10:30 AM79 °FPassing clouds.5 mph61%29.92 "HgN/A
10:00 AM81 °FPassing clouds.3 mph51%29.95 "HgN/A
9:30 AM79 °FScattered clouds.2 mph48%29.95 "HgN/A
9:00 AM73 °FPartly sunny.No wind57%29.95 "HgN/A
8:30 AM72 °FPartly sunny.5 mph57%29.95 "HgN/A
8:00 AM68 °FPartly sunny.6 mph64%29.92 "HgN/A
7:30 AM68 °FPassing clouds.3 mph60%29.92 "HgN/A
7:00 AM66 °FPassing clouds.5 mph64%29.92 "HgN/A
Weather by CustomWeather, © 2014

See weather overviewHow to use our weather pages